[[{"header":{"parameterUnit":"m.s-1","parameterCategory":1,"la1":30.2991,"la2":30.254,"lo1":-89.0895,"lo2":-89.0444,"dy":0.0017,"dx":0.0017,"nx":28,"ny":28,"refTime":"2024-03-28T21:00:00:Z","depth":0,"parameterNumber":2,"parameterNumberName":"U-component_of_WINDS"},"data":[0,0,0,0,0,0,0,0,0,0,0,0,0,0,0,0,0,0,0,0,0,0,0,0,0,0,0,0,0,0,0,0,0,0,0,0,0,0,0,0,0,0,0,0,0,0,0,0,0,0,0,0,0,0,0,0,0,0,0.3442,0.3443,0,0.3466,0.3466,0.3467,0.3437,0.3436,0.3435,0.3434,0.346,0.3462,0.3464,0,0,0,0,0,0,0,0,0,0,0,0,0,0.3376,0.3377,0.3442,0.3443,0.3443,0.3466,0.3466,0.3467,0.3438,0.3436,0.3435,0.3434,0.346,0.3462,0.3464,0,0,0,0,0,0,0,0,0,0,0,0,0,0.3403,0.3377,0.3442,0.3431,0.343,0.3466,0.3466,0.3467,0.3438,0.3436,0.3435,0.3433,0.3459,0.3462,0.3464,0.3512,0,0,0.3472,0.3473,0,0,0,0,0,0,0,0,0.3401,0.3405,0.3433,0.3432,0.3431,0.3447,0.3452,0.3482,0.3438,0.3435,0.3434,0.3432,0.3457,0.346,0.3468,0.3513,0.3515,0.3472,0.3474,0.3475,0.3476,0,0,0,0,0,0,0,0.3399,0.3404,0.3452,0.3433,0.3432,0.3426,0.3428,0.3458,0.3455,0.3435,0.3433,0.3436,0.3457,0.3466,0.3468,0.3515,0.3472,0.3474,0.3476,0.3477,0.3604,0.3606,0,0,0,0,0,0,0.3398,0.3402,0.3451,0.3452,0.3412,0.3429,0.3431,0.3444,0.3455,0.3455,0.3438,0.3435,0.3462,0.3465,0.3469,0.3528,0.3475,0.3477,0.3479,0.3602,0.3604,0.3606,0,0,0,0,0,0,0.3397,0.3403,0.345,0.3427,0.3432,0.3432,0.3446,0.3445,0.3454,0.3456,0.3456,0.3447,0.3461,0.3466,0.3502,0.3529,0.3478,0.3481,0.36,0.3603,0.3605,0.3645,0,0,0,0,0,0,0.3395,0.3403,0.342,0.3428,0.3434,0.3482,0.3448,0.3447,0.3458,0.3455,0.3465,0.3465,0.346,0.3499,0.3505,0.3531,0.3483,0.3598,0.3601,0.3605,0.3642,0.3649,0.3656,0,0,0,0,0,0.3393,0.343,0.3421,0.3427,0.3455,0.3483,0.3487,0.3479,0.346,0.3478,0.3481,0.3465,0.3525,0.3503,0.3509,0.3537,0.3596,0.36,0.3604,0.3639,0.3648,0.3655,0,0,0,0,0,0,0.3426,0.3431,0.3421,0.3461,0.3472,0.3478,0.3501,0.3489,0.3506,0.3502,0.3493,0.3495,0.3535,0.3539,0.3515,0.3586,0.3557,0.3563,0.3581,0.359,0.3597,0.3595,0.3485,0,0,0,0,0,0.3437,0.3459,0.3462,0.3498,0.3504,0.3502,0.3513,0.3507,0.3518,0.3523,0.3527,0.3539,0.3561,0.3575,0.3595,0.3642,0.3645,0.3665,0.3672,0.3677,0.3683,0.371,0.372,0.362,0.362,0.362,0,0,0.3462,0.3468,0.3482,0.3505,0.3512,0.3536,0.3506,0.3531,0.355,0.3527,0.3562,0.3566,0.3579,0.3622,0.3641,0.3627,0.3711,0.3683,0.3687,0.3689,0.3716,0.3725,0.3734,0.3623,0.3622,0.3622,0,0,0.352,0.3525,0.3557,0.3565,0.3577,0.3576,0.3583,0.3592,0.3594,0.3629,0.3613,0.3635,0.3672,0.3683,0.3693,0.3757,0.3745,0.3764,0.3801,0.3828,0.3836,0.3843,0.3868,0.3876,0.3769,0.3769,0.3769,0,0.355,0.3584,0.3574,0.3602,0.3614,0.3594,0.3627,0.3636,0.3654,0.3663,0.3647,0.3695,0.3702,0.3748,0.3764,0.3772,0.3782,0.3763,0.3835,0.3842,0.3848,0.3872,0.3881,0.3772,0.3771,0.3771,0.3771,0,0.3621,0.3645,0.3669,0.3687,0.3701,0.3731,0.3728,0.3744,0.3737,0.3737,0.3775,0.3783,0.3806,0.3816,0.3809,0.3862,0.3853,0.3836,0.3808,0.386,0.3883,0.3892,0.3775,0.3774,0.3774,0.3773,0,0,0.3699,0.3713,0.3722,0.3731,0.3744,0.3763,0.3793,0.3815,0.383,0.3843,0.387,0.3903,0.3888,0.39,0.3894,0.3917,0.3971,0.3898,0.3898,0.3913,0.4033,0.4047,0.4057,0.3962,0.3964,0.3965,0.4032,0,0.3759,0.381,0.3803,0.3853,0.3877,0.386,0.3886,0.3898,0.39,0.3922,0.3924,0.3948,0.3925,0.3933,0.3955,0.3959,0.3995,0.3954,0.3989,0.399,0.3987,0.4068,0.4083,0.4145,0.4041,0.4042,0.4043,0,0.3834,0.3851,0.3904,0.3915,0.3925,0.3949,0.3969,0.3989,0.4003,0.4003,0.4017,0.4008,0.404,0.4011,0.4056,0.4029,0.4043,0.4047,0.4049,0.4053,0.4021,0.4076,0.4165,0.4175,0.4056,0.4055,0.4054,0,0.3889,0.3925,0.3961,0.3969,0.3983,0.4001,0.4007,0.4019,0.4033,0.4052,0.4062,0.4083,0.4096,0.4114,0.4112,0.409,0.4159,0.4129,0.4162,0.4162,0.4178,0.4177,0.4272,0.4184,0.4184,0.4184,0.4184,0,0.3957,0.399,0.3986,0.4009,0.4047,0.4039,0.4077,0.4082,0.4093,0.4118,0.4104,0.4128,0.4122,0.4146,0.4145,0.4184,0.4189,0.4192,0.4191,0.4194,0.4194,0.4204,0.42,0.4186,0.4186,0.4185,0.4185,0,0.4024,0.4023,0.4062,0.4072,0.4075,0.4103,0.4112,0.4134,0.4136,0.4167,0.4174,0.4177,0.4205,0.4204,0.4235,0.4235,0.4284,0.4277,0.4279,0.4279,0.4312,0.431,0.4418,0.4433,0.4334,0.4335,0.4335,0,0.4068,0.4094,0.4107,0.4122,0.413,0.4155,0.4169,0.4164,0.418,0.4199,0.422,0.4246,0.4267,0.4313,0.4319,0.4343,0.4339,0.4375,0.4342,0.4345,0.4342,0.4341,0.4345,0.4382,0.4383,0.4384,0.4384,0,0.4148,0.4146,0.4167,0.4189,0.4207,0.4224,0.424,0.4254,0.425,0.427,0.4298,0.4314,0.4347,0.4375,0.4399,0.4407,0.4396,0.4394,0.4404,0.4408,0.4409,0.4411,0.4299,0.4392,0.4391,0.4391,0.439,0.439,0.4206,0.4229,0.4242,0.4267,0.4278,0.4294,0.4316,0.4321,0.4344,0.437,0.4365,0.4398,0.4413,0.4445,0.4455,0.4482,0.4469,0.4482,0.4486,0.449,0.4494,0.4403,0.4486,0.4486,0.4486,0.4485,0.4485,0,0.4287,0.4294,0.4317,0.434,0.4361,0.4347,0.4365,0.4383,0.4412,0.4426,0.4448,0.4482,0.4509,0.4517,0.4544,0.4564,0.4559,0.4571,0.457,0.4573,0.4503,0.4493,0.4574,0.4574,0.4574,0.4574,0.4574,0.4574,0.4331,0.4369,0.437,0.4415,0.4422,0.4454,0.4465,0.448,0.4492,0.4531,0.4553,0.4558,0.4571,0.4599,0.4624,0.4626,0.4637,0.4651,0.4652,0.4586,0.4577,0.4569,0.456,0.4653,0.4653,0.4719,0.472,0.4721]},{"header":{"parameterUnit":"m.s-1","parameterCategory":1,"la1":30.2991,"la2":30.254,"lo1":-89.0895,"lo2":-89.0444,"dy":0.0017,"dx":0.0017,"nx":28,"ny":28,"refTime":"2024-03-28T21:00:00:Z","depth":0,"parameterNumber":3,"parameterNumberName":"V-component_of_WINDS"},"data":[0,0,0,0,0,0,0,0,0,0,0,0,0,0,0,0,0,0,0,0,0,0,0,0,0,0,0,0,0,0,0,0,0,0,0,0,0,0,0,0,0,0,0,0,0,0,0,0,0,0,0,0,0,0,0,0,0,0,-4.7378,-4.7379,0,-4.7454,-4.7455,-4.7456,-4.7481,-4.7481,-4.7481,-4.748,-4.7552,-4.7554,-4.7556,0,0,0,0,0,0,0,0,0,0,0,0,0,-4.7249,-4.7251,-4.7378,-4.7379,-4.738,-4.7454,-4.7455,-4.7456,-4.7481,-4.7481,-4.7481,-4.748,-4.7551,-4.7554,-4.7556,0,0,0,0,0,0,0,0,0,0,0,0,0,-4.7313,-4.7252,-4.7377,-4.7401,-4.7404,-4.7454,-4.7455,-4.7456,-4.7481,-4.7481,-4.748,-4.748,-4.755,-4.7553,-4.7557,-4.7586,0,0,-4.7567,-4.7568,0,0,0,0,0,0,0,0,-4.7309,-4.7317,-4.7397,-4.74,-4.7403,-4.7458,-4.7436,-4.75,-4.7481,-4.7452,-4.748,-4.748,-4.752,-4.7526,-4.7541,-4.7589,-4.7592,-4.7567,-4.7569,-4.757,-4.7571,0,0,0,0,0,0,0,-4.7305,-4.7314,-4.7408,-4.7398,-4.7402,-4.7407,-4.7415,-4.7448,-4.7487,-4.7454,-4.7456,-4.7465,-4.7522,-4.7538,-4.7543,-4.7593,-4.7567,-4.757,-4.7572,-4.7573,-4.7673,-4.7673,0,0,0,0,0,0,-4.7297,-4.731,-4.7405,-4.741,-4.7354,-4.7409,-4.7419,-4.7441,-4.7487,-4.7494,-4.7466,-4.7466,-4.7533,-4.7539,-4.7546,-4.7586,-4.757,-4.7573,-4.7575,-4.7672,-4.7673,-4.7674,0,0,0,0,0,0,-4.7294,-4.7305,-4.7402,-4.7361,-4.7374,-4.7412,-4.7436,-4.7442,-4.7459,-4.7496,-4.7503,-4.7475,-4.7532,-4.7541,-4.7577,-4.7588,-4.7575,-4.7578,-4.7671,-4.7672,-4.7673,-4.7664,0,0,0,0,0,0,-4.729,-4.7304,-4.7316,-4.7361,-4.7376,-4.7433,-4.7437,-4.7444,-4.7465,-4.7466,-4.7507,-4.7513,-4.7533,-4.7572,-4.758,-4.7593,-4.758,-4.767,-4.7672,-4.7673,-4.7664,-4.7665,-4.7666,0,0,0,0,0,-4.7286,-4.7308,-4.7317,-4.7328,-4.7392,-4.7434,-4.7442,-4.7467,-4.7466,-4.7478,-4.7503,-4.7512,-4.7586,-4.7575,-4.7585,-4.7598,-4.767,-4.7671,-4.7673,-4.7663,-4.7664,-4.7666,0,0,0,0,0,0,-4.726,-4.7315,-4.7324,-4.7363,-4.7394,-4.7438,-4.7454,-4.7467,-4.7497,-4.7497,-4.7524,-4.7533,-4.7567,-4.7586,-4.7574,-4.7631,-4.7628,-4.7632,-4.7617,-4.7619,-4.762,-4.7615,-4.7583,0,0,0,0,0,-4.726,-4.7291,-4.7336,-4.7365,-4.7381,-4.7415,-4.7434,-4.7451,-4.7483,-4.7496,-4.7523,-4.7552,-4.7583,-4.7602,-4.7631,-4.7667,-4.7676,-4.7681,-4.7682,-4.7682,-4.7685,-4.7708,-4.7711,-4.7679,-4.7679,-4.7679,0,0,-4.7258,-4.7291,-4.7309,-4.7361,-4.7387,-4.7418,-4.7426,-4.7457,-4.748,-4.75,-4.7537,-4.7558,-4.7593,-4.7629,-4.7646,-4.7646,-4.7696,-4.7684,-4.7685,-4.7687,-4.7709,-4.7712,-4.7715,-4.768,-4.768,-4.7679,0,0,-4.727,-4.7299,-4.7328,-4.7355,-4.7396,-4.742,-4.7427,-4.747,-4.7486,-4.7524,-4.7541,-4.7567,-4.7618,-4.7644,-4.7663,-4.769,-4.7699,-4.7698,-4.7703,-4.7725,-4.7728,-4.773,-4.7741,-4.7745,-4.7701,-4.7701,-4.7701,0,-4.7262,-4.7311,-4.734,-4.7373,-4.7396,-4.7419,-4.7449,-4.7473,-4.752,-4.7535,-4.7534,-4.7602,-4.7626,-4.7671,-4.7678,-4.7692,-4.7701,-4.7693,-4.7725,-4.7728,-4.7731,-4.7741,-4.7745,-4.77,-4.77,-4.77,-4.77,0,-4.73,-4.7334,-4.7352,-4.7402,-4.7427,-4.7457,-4.7491,-4.7512,-4.7528,-4.7551,-4.759,-4.7622,-4.766,-4.7671,-4.7684,-4.7718,-4.7717,-4.772,-4.7718,-4.7733,-4.7744,-4.7748,-4.77,-4.77,-4.77,-4.77,0,0,-4.7296,-4.7365,-4.7371,-4.7396,-4.7445,-4.7471,-4.7503,-4.7543,-4.7562,-4.7594,-4.7622,-4.7667,-4.7672,-4.7694,-4.7711,-4.773,-4.7751,-4.7731,-4.7733,-4.7735,-4.7792,-4.779,-4.7794,-4.7758,-4.7759,-4.776,-4.779,0,-4.7316,-4.7377,-4.7406,-4.7454,-4.7487,-4.7511,-4.7539,-4.7572,-4.7595,-4.7625,-4.7649,-4.7682,-4.7685,-4.7699,-4.7719,-4.7745,-4.7763,-4.7743,-4.7784,-4.7785,-4.7776,-4.78,-4.7797,-4.7823,-4.7794,-4.7795,-4.7795,0,-4.7347,-4.7384,-4.7436,-4.7485,-4.75,-4.7525,-4.7566,-4.7594,-4.7632,-4.7648,-4.7675,-4.7692,-4.7726,-4.7722,-4.777,-4.7756,-4.7774,-4.779,-4.7792,-4.7797,-4.7791,-4.7806,-4.7832,-4.7836,-4.7802,-4.7801,-4.7801,0,-4.7341,-4.7404,-4.7444,-4.7464,-4.7521,-4.7539,-4.7563,-4.76,-4.7624,-4.7659,-4.7675,-4.7712,-4.7733,-4.7761,-4.7788,-4.7782,-4.7834,-4.7831,-4.7848,-4.7847,-4.7857,-4.7856,-4.7887,-4.7868,-4.7868,-4.7868,-4.7867,0,-4.736,-4.7392,-4.7443,-4.7468,-4.7504,-4.7537,-4.7571,-4.7597,-4.7631,-4.7661,-4.7683,-4.7709,-4.7743,-4.7774,-4.7795,-4.7833,-4.7841,-4.7855,-4.786,-4.7853,-4.7852,-4.7866,-4.7865,-4.7869,-4.7868,-4.7868,-4.7868,0,-4.7359,-4.7395,-4.7441,-4.7494,-4.7507,-4.7532,-4.7576,-4.7601,-4.7627,-4.7664,-4.7674,-4.7714,-4.7752,-4.7783,-4.783,-4.7845,-4.7885,-4.789,-4.7873,-4.7876,-4.7892,-4.789,-4.7933,-4.7942,-4.7915,-4.7916,-4.7916,0,-4.737,-4.7395,-4.7452,-4.7475,-4.7501,-4.7537,-4.7563,-4.7596,-4.7622,-4.7669,-4.7688,-4.7729,-4.7763,-4.7823,-4.7855,-4.7893,-4.79,-4.7913,-4.7905,-4.7899,-4.7902,-4.79,-4.7904,-4.7913,-4.7913,-4.7913,-4.7913,0,-4.7385,-4.7403,-4.744,-4.7485,-4.7516,-4.7552,-4.7588,-4.7605,-4.7645,-4.7673,-4.7715,-4.7742,-4.7794,-4.7834,-4.7876,-4.7899,-4.7913,-4.7916,-4.7922,-4.7916,-4.7906,-4.7913,-4.7877,-4.7914,-4.7914,-4.7914,-4.7914,-4.7914,-4.7391,-4.7416,-4.7461,-4.7503,-4.7535,-4.757,-4.7597,-4.7628,-4.7664,-4.7712,-4.7729,-4.7772,-4.7811,-4.787,-4.7894,-4.7927,-4.7928,-4.7936,-4.7939,-4.794,-4.7941,-4.79,-4.7935,-4.7935,-4.7935,-4.7935,-4.7935,0,-4.7408,-4.744,-4.7478,-4.7531,-4.7564,-4.7579,-4.762,-4.7646,-4.7685,-4.7722,-4.7757,-4.7806,-4.7846,-4.7883,-4.7925,-4.7945,-4.7952,-4.7954,-4.7953,-4.7959,-4.7937,-4.7928,-4.7948,-4.7948,-4.7948,-4.7948,-4.7948,-4.7948,-4.7421,-4.7466,-4.749,-4.755,-4.7581,-4.7626,-4.7649,-4.7681,-4.7712,-4.7767,-4.7802,-4.7827,-4.7864,-4.7909,-4.7947,-4.7957,-4.7971,-4.7972,-4.7984,-4.7962,-4.796,-4.7959,-4.7951,-4.7975,-4.7975,-4.8004,-4.8004,-4.8004]}]]